STARLINK-1770, 46383

Orbit data source: Space-Track

STARLINK-1770, 46383 is a payload satellite owned by SpaceX/Seattle (US) in LEO that was launched on Thu, 03 Sep 2020 UTC via an FALCON 9 launch vehicle from the Air Force Eastern Test Range (AFETR). Payload-class satellites include a variety of spacecraft equipped with specific instruments for various scientific and technological missions. These include communications satellites like Starlink; space stations such as the ISS; scientific satellites like the Hubble; Earth observation satellites from companies like Planet Labs, Umbra, and HawkEye 360; GPS; miniature CubeSats for education and research; and military/defense satellites.

Loading next visibility...
Identifier
46383, 2020-062BL
Orbit
LEO
Country
Flag of USUS
Related business
Manufacturer
SpaceX/Seattle
Mission
Partially operational Commercial Communications
Bus & Motor
STARLINK, Unknown motor
Mass
260 kg wet, ~248 kg dry
Launch date (UTC)
2020-09-03 (5 years ago)
Launch vehicle
FALCON 9
Launch site
Air Force Eastern Test Range (AFETR)
Object type
Payload
Rocket body
Debris
Shape & HBR
Box + 1 Pan, 10.1 m
Radar Cross Section
13.562 m², Large (>1 m²)

Expand to show TLE details & history
Last TLE update: 12 hours ago

TLE from 12 hours ago
0 STARLINK-1770
1 46383U 20062BL  25295.16667823  .00086606  00000-0  23864-2 0  9997
2 46383  53.0519 260.3682 0006755  48.5041 356.4216 15.36395120  5851
Epoch: 2025-10-22T04:00Z
TLE epoch observation values (Epoch: 2025-10-22T04:00:00.999Z)
Latitude
34.46709°
Longitude
-159.58768°
Altitude
454.639 km
Speed
7.647 km/s
True Right ascension
19h 25m 02s
True Declination
34° 17' 59"
Sunlit
Object was in daylight at epoch
Visualization orbit readout
Latitude
Unknown
Longitude
Unknown
Altitude
Unknown
Speed
Unknown
Apparent Right ascension
Unknown
Apparent Declination
Unknown
Sunlit
N/A
Visualization observer readout
Local Sidereal Time
11:08:43
Azimuth
Unknown
Elevation
Unknown
Doppler factor
Unknown
Orbital elements
Apogee altitude
461.672 km
Perigee altitude
452.437 km
Semi-major axis
6,835.191 km
Eccentricity
0.00068
Inclination
53.0519°
RAAN
260.3682°
Arg. of periapsis
48.5041°
True anomaly
356.41676°
Mean anomaly
356.4216°
Eccentric anomaly
356.41918°
Mean motion
3.84076 °/min
Orbital period
93.73 mins
BSTAR
0.0023864
Loading maneuver chart data...
Computing Atmospheric mass density...
Loading historical data...
Loading historical data...
Loading historical data...
Loading historical data...
Loading historical data...
Loading historical data...
Loading historical data...

Documentation

Showing up to 5 results
|